Location: Beadle
(51.4667°N, 109.0000°W)
Time: 11:17:05
(UTC+00:00)

Envisat - Pass Details

Date: 24 January 2022
Orbit: 764 x 765 km, 98.2° (Epoch: 22 May)

Event Time Altitude Azimuth Distance (km) Brightness Sun altitude
Rises 10:32:19 0° 31° (NNE) 3,242 6.8 -41.7°
Reaches altitude 10° 10:36:31 10° 65° (ENE) 2,309 6.1 -41.1°
Maximum altitude 10:38:06 11° 83° (E) 2,212 6.0 -40.9°
Drops below altitude 10° 10:39:38 10° 101° (E) 2,297 6.0 -40.6°
Sets 10:43:51 0° 135° (SE) 3,223 6.5 -40.0°
